Weather History for Galena, AK

Change the Weather History Date:

Saturday, November 10, 2012

  Actual Average Record
Temperature  
Mean Temperature 12 °F -  
Max Temperature 17 °F 14 °F 39 °F (1979)
Min Temperature 6 °F 0 °F -31 °F (1975)
Degree Days  
Heating Degree Days 53    
Moisture  
Dew Point 12 °F    
Average Humidity 89    
Maximum Humidity 93    
Minimum Humidity 79    
Precipitation  
Precipitation 0.00 in - - ()
Sea Level Pressure  
Sea Level Pressure 29.76 in    
Wind  
Wind Speed 4 mph (North)    
Max Wind Speed 6 mph    
Max Gust Speed -    
Visibility 4 miles    
Events Snow    
Averages and records for this station are not official NWS values.
T = Trace of Precipitation, MM = Missing Value Source: NWS Daily Summary

Daily Weather History Graph

Daily Weather History Graph

Search for Another Location

Airport:

Trip Planner

Search our weather history database for the weather conditions in past years. The results will help you decide how hot, cold, wet, or windy it might be!

Date:

Astronomy

Nov. 10, 2012 Rise Set
Actual Time 9:47 AM AKST 4:34 PM AKST
Civil Twilight 8:47 AM AKST 5:34 PM AKST
Nautical Twilight 7:46 AM AKST 6:35 PM AKST
Astronomical Twilight 6:49 AM AKST 7:32 PM AKST
Moon 4:52 AM AKST (11/10) 3:30 PM AKST (11/10)
Length of Visible Light 8h 46m
Length of Day
6h 47m
Waning Crescent, 13% of the Moon is Illuminated
Nov 10
Waning Crescent
Nov 13
New
Nov 20
First Quarter
Nov 28
Full
Dec 6
Last Quarter

Hourly Weather History & Observations

Time (AKST) Temp. Windchill Dew Point Humidity Pressure Visibility Wind Dir Wind Speed Gust Speed Precip Events Conditions
12:03 AM 15.8 °F 8.6 °F 14.0 °F 93% 29.76 in 1.0 mi North 4.6 mph - 0.00 in Snow Light Snow
12:15 AM 15.8 °F 8.6 °F 14.0 °F 93% 29.76 in 1.2 mi North 4.6 mph - 0.00 in Snow Light Snow
12:40 AM - - - N/A% 29.76 in 1.0 mi North 5.8 mph - 0.00 in   Unknown
12:52 AM 15.8 °F 10.2 °F 14.0 °F 93% 29.76 in 0.8 mi North 3.5 mph - 0.00 in Snow Light Snow
12:58 AM 16.0 °F 8.8 °F 14.0 °F 92% 29.78 in 0.8 mi North 4.6 mph - 0.00 in Snow Light Snow
1:12 AM 15.8 °F 7.2 °F 14.0 °F 93% 29.76 in 1.0 mi North 5.8 mph - 0.00 in Snow Light Snow
1:21 AM 15.8 °F 8.6 °F 14.0 °F 93% 29.75 in 1.2 mi North 4.6 mph - 0.00 in Snow Light Snow
1:51 AM 15.8 °F 8.6 °F 14.0 °F 93% 29.75 in 2.5 mi North 4.6 mph - 0.00 in Snow Light Snow
1:56 AM 15.8 °F 10.2 °F 14.0 °F 93% 29.75 in 3.0 mi North 3.5 mph - 0.00 in Snow Light Snow
1:58 AM 16.0 °F 7.4 °F 14.0 °F 92% 29.77 in 3.0 mi North 5.8 mph - 0.00 in Snow Light Snow
2:08 AM 15.8 °F 10.2 °F 14.0 °F 93% 29.75 in 6.0 mi North 3.5 mph - 0.00 in Snow Light Snow
2:26 AM 15.8 °F 8.6 °F 14.0 °F 93% 29.75 in 2.0 mi Variable 4.6 mph - 0.00 in Snow Light Snow
2:30 AM 15.8 °F 10.2 °F 14.0 °F 93% 29.75 in 1.5 mi North 3.5 mph - 0.00 in Snow Light Snow
2:58 AM 16.0 °F 8.8 °F 14.0 °F 92% 29.77 in 1.2 mi North 4.6 mph - 0.00 in Snow Light Snow
3:29 AM 15.8 °F 8.6 °F 14.0 °F 93% 29.74 in 2.0 mi North 4.6 mph - 0.00 in Snow Light Snow
3:46 AM 15.8 °F 8.6 °F 14.0 °F 93% 29.74 in 1.8 mi North 4.6 mph - 0.00 in Snow Light Snow
3:56 AM 15.8 °F - 14.0 °F 93% 29.74 in 2.5 mi Calm Calm - 0.00 in Snow Light Snow
3:58 AM 16.0 °F 10.4 °F 14.0 °F 92% 29.76 in 3.0 mi North 3.5 mph - 0.00 in Snow Light Snow
4:08 AM 15.8 °F - 14.0 °F 93% 29.74 in 6.0 mi Calm Calm - 0.00 in Snow Light Snow
4:29 AM 15.8 °F 8.6 °F 14.0 °F 93% 29.74 in 2.5 mi North 4.6 mph - 0.00 in Snow Light Snow
4:33 AM 15.8 °F 8.6 °F 14.0 °F 93% 29.74 in 2.0 mi North 4.6 mph - 0.00 in Snow Light Snow
4:46 AM 15.8 °F 10.2 °F 14.0 °F 93% 29.74 in 2.5 mi North 3.5 mph - 0.00 in Snow Light Snow
4:58 AM 16.0 °F 8.8 °F 14.0 °F 92% 29.76 in 2.5 mi North 4.6 mph - 0.00 in Snow Light Snow
5:26 AM 15.8 °F 7.2 °F 14.0 °F 93% 29.73 in 2.0 mi North 5.8 mph - 0.00 in Snow Light Snow
5:43 AM 15.8 °F 10.2 °F 14.0 °F 93% 29.73 in 1.8 mi North 3.5 mph - 0.00 in Snow Light Snow
5:58 AM 16.0 °F 10.4 °F 14.0 °F 92% 29.75 in 1.5 mi North 3.5 mph - 0.00 in Snow Light Snow
6:40 AM 15.8 °F 10.2 °F 14.0 °F 93% 29.73 in 1.0 mi North 3.5 mph - 0.00 in Snow Light Snow
6:45 AM 15.8 °F 8.6 °F 14.0 °F 93% 29.73 in 1.2 mi North 4.6 mph - 0.00 in Snow Light Snow
6:58 AM 16.0 °F 10.4 °F 14.0 °F 92% 29.75 in 1.5 mi North 3.5 mph - 0.00 in Snow Light Snow
7:14 AM 15.8 °F 10.2 °F 14.0 °F 93% 29.72 in 2.0 mi North 3.5 mph - 0.00 in Snow Light Snow
7:23 AM 15.8 °F - 14.0 °F 93% 29.72 in 3.0 mi Calm Calm - 0.00 in Snow Light Snow
7:29 AM 15.8 °F 10.2 °F 14.0 °F 93% 29.72 in 2.5 mi NNW 3.5 mph - 0.00 in Snow Light Snow
7:39 AM 15.8 °F 10.2 °F 14.0 °F 93% 29.73 in 1.8 mi NNW 3.5 mph - 0.00 in Snow Light Snow
7:58 AM 16.0 °F 10.4 °F 14.0 °F 92% 29.75 in 1.5 mi NNW 3.5 mph - 0.00 in Snow Light Snow
8:06 AM 15.8 °F 10.2 °F 14.0 °F 93% 29.73 in 2.0 mi NNW 3.5 mph - 0.00 in Snow Light Snow
8:17 AM 15.8 °F 10.2 °F 14.0 °F 93% 29.73 in 1.8 mi NNW 3.5 mph - 0.00 in Snow Light Snow
8:58 AM 16.0 °F 8.8 °F 14.0 °F 92% 29.76 in 1.8 mi North 4.6 mph - 0.00 in Snow Light Snow
9:09 AM 15.8 °F 8.6 °F 14.0 °F 93% 29.74 in 2.0 mi North 4.6 mph - 0.00 in Snow Light Snow
9:18 AM 15.8 °F 8.6 °F 14.0 °F 93% 29.74 in 3.0 mi North 4.6 mph - 0.00 in Snow Light Snow
9:34 AM 15.8 °F 10.2 °F 14.0 °F 93% 29.74 in 2.0 mi North 3.5 mph - 0.00 in Snow Light Snow
9:43 AM 15.8 °F 8.6 °F 14.0 °F 93% 29.74 in 1.8 mi North 4.6 mph - 0.00 in Snow Light Snow
9:56 AM 15.8 °F 8.6 °F 14.0 °F 93% 29.74 in 1.8 mi NNW 4.6 mph - 0.00 in Snow Light Snow
9:58 AM 16.0 °F - 14.0 °F 92% 29.76 in 1.8 mi Calm Calm - 0.00 in Snow Light Snow
10:13 AM 15.8 °F - 14.0 °F 93% 29.74 in 1.5 mi Calm Calm - 0.00 in Snow Light Snow
10:45 AM 15.8 °F - 14.0 °F 93% 29.74 in 2.0 mi Calm Calm - 0.00 in Snow Light Snow
10:58 AM 17.1 °F 10.0 °F 14.0 °F 88% 29.77 in 1.2 mi NNW 4.6 mph - 0.00 in Snow Light Snow
11:07 AM 17.6 °F 12.3 °F 14.0 °F 86% 29.74 in 1.0 mi NNW 3.5 mph - 0.00 in Snow Light Snow
11:11 AM 17.6 °F 12.3 °F 14.0 °F 86% 29.75 in 1.2 mi NNW 3.5 mph - 0.00 in Snow Light Snow
11:23 AM 17.6 °F - 14.0 °F 86% 29.75 in 2.5 mi Calm Calm - 0.00 in Snow Light Snow
11:36 AM 17.6 °F 10.7 °F 14.0 °F 86% 29.75 in 3.0 mi NNW 4.6 mph - 0.00 in Snow Light Snow
11:58 AM 16.0 °F 10.4 °F 14.0 °F 92% 29.78 in 9.0 mi NNW 3.5 mph - 0.00 in Snow Light Snow
12:06 PM 17.6 °F 12.3 °F 14.0 °F 86% 29.75 in 9.0 mi Variable 3.5 mph - 0.00 in Snow Light Snow
12:18 PM 17.6 °F 10.7 °F 14.0 °F 86% 29.76 in 9.0 mi North 4.6 mph - 0.00 in Snow Light Snow
12:58 PM 17.1 °F 11.7 °F 14.0 °F 88% 29.78 in 9.0 mi North 3.5 mph - 0.00 in Snow Light Snow
1:39 PM 17.6 °F - 12.2 °F 79% 29.76 in 7.0 mi Calm Calm - 0.00 in Snow Light Snow
1:44 PM 17.6 °F 10.7 °F 12.2 °F 79% 29.76 in 8.0 mi Variable 4.6 mph - 0.00 in Snow Light Snow
1:58 PM 17.1 °F 10.0 °F 12.9 °F 84% 29.78 in 9.0 mi NNW 4.6 mph - 0.00 in Snow Light Snow
2:58 PM 16.0 °F 8.8 °F 12.9 °F 88% 29.78 in 9.0 mi Variable 4.6 mph - 0.00 in Snow Light Snow
3:36 PM 15.8 °F - 12.2 °F 86% 29.76 in 9.0 mi Calm Calm - 0.00 in Snow Light Snow
3:58 PM 15.1 °F 9.4 °F 12.0 °F 88% 29.78 in 9.0 mi Variable 3.5 mph - 0.00 in Snow Light Snow
4:21 PM 14.0 °F 5.1 °F 10.4 °F 86% 29.75 in 9.0 mi NW 5.8 mph - 0.00 in Snow Light Snow
4:58 PM 12.9 °F 6.9 °F 9.0 °F 84% 29.78 in 9.0 mi NNW 3.5 mph - 0.00 in Snow Light Snow
5:58 PM 12.9 °F 5.2 °F 9.0 °F 84% 29.79 in 10.0 mi NNW 4.6 mph - 0.00 in   Overcast
6:34 PM 12.2 °F 6.1 °F 8.6 °F 85% 29.77 in 10.0 mi NNW 3.5 mph - N/A   Overcast
6:58 PM 12.9 °F 6.9 °F 9.0 °F 84% 29.80 in 10.0 mi North 3.5 mph - N/A   Overcast
7:07 PM 12.2 °F 4.3 °F 8.6 °F 85% 29.77 in 10.0 mi NNW 4.6 mph - N/A   Overcast
7:58 PM 12.0 °F - 7.0 °F 80% 29.81 in 10.0 mi Calm Calm - N/A   Overcast
8:03 PM 12.2 °F - 6.8 °F 79% 29.78 in 10.0 mi Calm Calm - N/A   Overcast
8:58 PM 10.9 °F 2.9 °F 7.0 °F 84% 29.81 in 10.0 mi NNW 4.6 mph - N/A   Overcast
9:34 PM 10.4 °F 4.0 °F 5.0 °F 79% 29.79 in 10.0 mi North 3.5 mph - N/A   Overcast
9:51 PM 8.6 °F 0.1 °F 5.0 °F 85% 29.79 in 10.0 mi NNW 4.6 mph - N/A   Overcast
9:58 PM 9.0 °F - 3.9 °F 80% 29.82 in 10.0 mi Calm Calm - N/A   Overcast
10:58 PM 7.0 °F -1.7 °F 3.0 °F 84% 29.83 in 10.0 mi NW 4.6 mph - N/A   Overcast
11:58 PM 6.1 °F - 1.9 °F 83% 29.84 in 10.0 mi Calm Calm - N/A   Overcast